GFSMW_sfc_thetae_273.txt.gz
Theta_e
319 319 317 317 317 317 317 318 319 322 321 320 318 318 317 322 323 325 322 322 322 322 322 320 323 320 316 314 315 313 311 312 318 311 312 314 315 317 317 316 317 317 321
316 317 318 318 320 320 320 320 319 320 320 319 319 320 319 320 321 322 322 322 320 320 320 322 323 325 323 320 315 315 310 312 313 310 310 306 309 313 316 316 314 315 320
316 317 315 317 317 318 318 320 320 320 320 319 318 317 318 317 316 315 316 317 318 318 320 321 321 322 325 320 318 314 314 311 315 315 311 306 303 308 313 313 314 314 317
317 316 316 315 316 317 319 320 320 320 317 317 315 315 312 310 312 313 315 316 318 318 318 319 320 321 324 321 320 317 317 316 312 315 314 315 312 306 304 311 314 312 315
312 312 313 314 317 317 318 320 319 318 316 316 315 313 313 312 313 312 313 315 317 318 317 318 318 318 318 320 317 315 318 316 314 313 313 313 312 313 307 303 308 311 313
311 311 313 315 315 317 317 317 314 315 316 314 315 314 313 312 310 311 310 311 314 314 317 316 317 318 318 319 319 319 317 315 315 315 315 314 311 309 309 306 307 305 309
309 311 312 313 314 313 313 311 311 311 313 313 313 313 313 313 311 311 309 310 311 313 315 316 317 316 317 317 318 318 313 312 314 315 313 310 311 311 311 308 306 305 307
308 310 312 311 309 308 308 310 310 311 312 312 311 312 313 310 310 311 311 310 311 313 316 317 317 317 316 317 317 316 314 316 316 312 311 309 311 314 312 311 306 302 304
307 309 307 305 308 306 306 309 309 310 311 309 309 311 312 312 311 312 313 312 313 313 315 315 316 317 316 316 316 315 314 312 314 312 309 310 313 312 312 311 307 304 301
307 308 307 304 307 305 309 311 310 310 309 310 310 310 311 311 311 311 311 312 313 314 314 314 315 315 314 314 314 311 309 309 310 311 310 312 309 313 314 312 308 308 306
305 304 303 307 304 308 308 309 310 310 310 310 310 309 308 307 308 310 310 311 312 313 312 312 310 311 311 310 305 307 306 306 307 308 309 312 314 314 314 310 310 308 307
304 303 303 304 306 306 307 308 306 307 309 309 307 307 305 306 307 307 306 308 310 309 307 307 306 305 305 306 306 304 303 303 305 311 313 311 312 313 314 312 310 308 309
301 303 303 304 305 306 307 305 305 305 306 306 304 304 305 305 305 304 305 304 305 306 306 306 304 303 304 304 305 304 304 303 306 310 311 310 311 310 310 310 309 306 305
302 302 303 305 306 306 305 305 306 306 306 304 303 304 304 304 304 304 304 305 303 302 305 304 304 306 307 307 308 308 308 307 306 309 311 311 311 310 311 310 310 306 305
300 302 303 305 305 304 305 306 307 306 304 303 304 304 303 304 303 304 302 303 305 303 304 304 306 307 307 304 305 305 307 307 309 311 311 312 309 308 309 310 308 307 305
301 303 303 303 302 303 303 303 303 303 304 304 303 303 304 303 303 302 304 303 302 303 304 304 304 304 303 302 303 306 308 308 308 308 309 310 308 309 307 308 309 308 306
302 302 302 302 301 301 303 302 303 305 305 305 304 304 304 302 302 304 305 304 303 306 304 303 303 304 305 300 301 303 307 306 305 305 307 306 306 306 307 306 306 306 306
301 301 302 301 302 302 302 304 305 305 305 304 303 304 305 302 302 303 303 304 304 303 304 304 306 305 303 301 300 302 305 304 304 303 304 304 306 306 306 305 305 308 309
301 302 301 302 302 303 303 304 304 303 303 302 303 304 305 302 304 301 301 302 303 303 303 303 303 302 303 299 299 303 303 304 302 303 304 306 305 300 301 310 308 309 309
302 302 302 303 304 304 306 303 302 302 301 302 303 304 304 305 304 303 302 303 304 304 304 304 305 304 304 298 298 302 305 304 303 305 304 300 304 297 298 310 309 307 307
302 303 303 302 305 306 303 302 302 302 304 305 304 305 305 304 304 304 302 304 306 306 305 305 306 305 302 303 297 298 308 307 307 304 309 309 297 296 296 299 310 306 307
302 304 303 303 304 304 303 302 302 305 305 306 305 306 306 305 304 304 305 308 308 308 306 306 305 306 307 300 298 297 298 303 308 307 309 307 296 296 296 301 296 297 299
303 304 302 304 305 305 304 302 303 305 305 306 306 306 306 305 305 307 308 309 308 306 306 307 308 309 310 312 301 299 298 300 310 310 303 298 297 297 301 297 297 296 313
302 304 303 304 305 305 305 304 305 306 305 307 308 306 307 307 306 309 306 307 309 308 306 306 305 306 308 307 310 310 312 305 310 308 311 304 302 299 304 310 310 314 314
304 303 303 305 305 306 305 307 308 307 308 308 309 310 310 311 309 310 308 310 311 304 303 303 306 304 304 300 295 299 307 310 303 307 310 308 308 308 309 309 310 310 310
303 302 304 306 305 307 306 306 310 310 310 309 308 306 307 311 312 312 312 296 295 295 292 291 297 304 293 292 292 292 291 292 293 306 305 305 305 305 305 306 307 308 307

GFSMW_sfc_thetae_276.txt.gz
Theta_e
319 320 321 324 324 325 324 324 324 325 323 320 318 317 316 319 321 322 324 324 322 322 323 321 323 326 324 325 325 319 314 316 319 316 316 317 318 319 319 320 319 319 320
321 321 322 322 323 323 323 323 324 324 322 318 319 318 318 318 320 319 320 321 320 320 320 321 321 323 323 326 324 322 315 313 317 314 313 308 311 316 317 319 318 319 319
318 320 320 320 321 321 322 323 324 324 322 321 317 317 317 317 315 316 316 318 320 320 321 321 321 322 322 321 325 324 317 315 316 319 313 306 304 309 314 316 317 317 316
320 317 318 319 320 320 322 323 324 323 320 321 318 318 313 311 314 314 315 317 319 319 320 320 321 322 320 321 324 323 321 319 314 318 317 317 315 308 307 313 314 315 316
317 316 317 318 319 320 321 322 321 320 319 320 319 316 315 314 313 314 316 317 319 318 319 320 320 321 319 321 321 321 321 319 318 317 317 317 317 316 309 305 313 311 312
315 316 317 318 318 319 319 318 316 317 318 317 317 317 315 315 313 314 313 312 313 315 318 318 319 321 320 320 320 321 321 321 318 317 320 318 315 313 312 309 311 308 310
311 313 316 317 317 316 315 312 315 315 316 316 316 315 316 316 315 314 312 313 312 313 317 319 319 319 319 319 320 320 320 319 317 316 318 319 316 313 313 312 310 308 311
311 311 316 316 315 314 312 311 314 313 314 314 315 315 316 313 313 314 313 313 314 316 318 319 318 318 319 319 320 318 318 319 318 317 320 317 316 312 318 315 309 305 309
312 312 315 313 307 312 312 313 313 313 313 314 313 313 313 314 313 314 315 313 315 315 317 317 317 317 318 318 316 314 317 319 320 320 317 315 312 317 318 316 313 307 302
310 313 312 310 309 311 312 312 311 310 311 312 312 313 312 311 310 310 311 312 313 315 315 315 316 316 316 316 315 313 310 310 312 313 310 312 315 316 319 316 312 311 309
310 308 305 307 311 311 310 310 311 309 311 311 312 311 309 309 310 309 309 311 313 313 313 313 312 313 312 314 312 308 307 307 308 311 313 315 317 317 317 315 314 312 308
308 307 308 309 309 309 308 309 310 310 311 310 308 307 310 309 308 307 307 307 307 309 311 310 307 305 307 311 311 309 309 309 310 313 314 313 313 315 316 313 313 312 310
307 307 308 307 307 308 308 308 309 310 310 306 306 308 307 305 306 306 306 306 304 308 310 309 310 309 309 310 312 312 312 312 310 312 314 313 313 312 312 314 312 310 307
305 307 306 305 304 306 305 306 307 305 305 308 307 307 305 304 303 307 306 306 307 303 306 309 309 310 310 309 310 311 312 312 311 313 313 313 313 313 312 312 312 309 306
305 304 303 303 302 303 305 306 306 307 308 306 307 305 304 304 305 305 304 305 306 307 309 308 308 309 309 307 310 310 310 310 310 312 312 313 310 309 310 311 308 308 307
303 303 303 302 302 303 304 305 307 306 307 306 306 305 305 305 307 308 309 308 307 309 308 309 307 307 308 302 303 306 308 309 309 309 311 311 311 309 308 308 308 308 311
303 304 302 303 303 304 306 305 305 307 307 308 308 306 307 304 304 306 305 306 306 310 308 308 308 309 310 301 302 305 309 308 308 308 308 305 307 308 309 306 307 306 306
304 304 303 303 306 306 307 305 307 306 307 307 308 307 308 305 305 305 304 304 305 304 304 304 305 305 306 301 300 303 305 304 304 305 306 308 310 311 310 311 312 312 313
306 305 305 305 306 307 306 306 306 307 306 306 306 307 308 308 305 307 308 306 308 308 307 307 306 305 305 299 299 305 306 305 305 306 306 313 313 300 301 312 312 312 312
306 306 306 306 306 306 308 307 307 306 305 306 307 309 310 308 306 310 310 309 311 310 309 307 307 305 311 298 298 305 306 307 307 313 314 301 305 298 298 315 314 312 314
307 307 306 305 305 306 307 306 308 307 308 309 310 310 310 310 312 313 312 310 306 306 307 308 313 313 310 308 298 299 311 310 313 310 310 310 299 298 297 297 314 308 306
306 306 305 304 306 307 307 306 306 308 309 310 310 309 311 312 313 314 312 315 314 312 312 315 314 315 317 299 299 298 299 304 312 312 313 309 297 298 298 301 297 297 299
307 306 308 306 307 307 308 306 308 310 311 310 310 312 313 313 314 315 314 314 315 313 312 311 310 313 314 316 302 300 301 302 314 314 306 301 299 298 302 298 298 297 319
306 307 308 305 306 308 309 309 310 312 311 311 313 314 314 314 315 314 315 310 308 309 310 311 311 311 311 309 311 315 315 305 312 309 315 309 306 303 307 310 310 314 314
307 307 307 307 307 309 310 312 313 313 312 312 312 311 314 315 315 314 311 309 305 301 307 310 309 308 306 301 295 297 306 309 306 305 313 312 311 311 311 311 311 312 312
305 309 309 309 308 308 311 312 314 313 312 311 313 312 312 313 314 312 309 293 295 293 292 291 296 305 293 292 292 292 292 293 293 311 310 309 309 308 309 309 309 310 309

GFSMW_sfc_thetae_279.txt.gz
Theta_e
319 323 322 325 324 325 324 325 325 326 323 318 318 317 316 319 320 322 324 322 321 320 325 320 321 325 325 326 326 323 321 319 319 318 316 318 321 321 319 323 322 321 319
320 321 323 323 323 322 324 325 325 325 323 318 319 318 318 318 318 320 321 322 320 321 319 323 320 323 320 325 326 325 322 319 319 314 314 309 315 316 319 321 319 319 318
319 319 320 321 321 321 322 324 325 324 323 322 319 319 319 318 315 316 316 318 319 320 321 322 322 321 322 319 325 326 323 317 318 321 314 310 309 312 314 316 316 319 316
318 318 318 319 320 321 322 323 323 322 321 322 321 319 315 312 314 316 318 318 319 319 320 320 321 322 320 322 322 324 324 321 317 320 318 320 318 311 310 315 315 318 317
316 315 317 318 320 320 322 321 321 321 321 321 321 315 315 313 315 315 317 319 321 320 318 320 320 321 320 322 322 322 323 324 319 318 320 319 317 316 312 309 314 315 317
314 315 316 318 318 318 317 317 318 320 318 320 319 317 316 316 313 315 313 314 315 315 318 319 320 321 322 321 321 322 322 322 321 320 321 319 315 315 314 311 313 312 312
312 315 316 315 315 314 314 315 314 314 316 315 316 316 317 316 316 315 313 313 313 314 318 320 320 319 320 320 321 321 320 321 320 321 320 320 319 317 318 314 311 309 311
315 314 315 314 314 314 312 312 312 312 313 314 315 315 315 313 313 314 313 312 312 315 318 318 319 318 319 319 319 317 318 320 321 319 320 317 316 314 317 316 311 306 309
313 315 316 314 311 311 312 311 311 311 313 313 313 313 314 313 311 312 312 312 315 314 315 317 317 317 317 317 317 315 315 318 320 320 320 317 315 317 320 317 313 307 304
313 312 312 311 313 312 310 312 312 313 311 312 311 311 311 311 311 311 311 311 313 315 315 315 315 316 316 315 316 313 313 314 314 316 315 316 316 317 318 316 313 313 311
311 311 311 312 310 310 312 311 312 310 311 310 310 310 309 309 309 309 309 309 311 313 312 312 311 311 313 314 314 311 312 311 313 316 315 316 317 315 316 314 315 316 310
311 309 310 308 310 308 308 308 310 308 308 309 311 309 307 308 309 308 307 309 309 311 311 312 311 311 310 313 313 312 313 312 312 313 315 314 313 315 316 316 315 313 312
309 309 309 308 306 307 306 307 308 308 310 309 309 306 305 307 308 307 308 308 309 309 311 311 311 310 311 311 311 312 312 313 313 313 313 314 314 313 314 315 314 314 310
306 307 305 304 305 306 305 306 308 309 309 308 306 307 309 310 309 309 307 308 310 309 309 310 310 311 310 309 310 311 311 312 312 314 314 313 313 311 312 312 311 310 308
305 303 303 303 304 305 307 307 307 309 309 309 307 306 308 310 307 308 309 310 310 309 310 310 311 311 309 307 308 311 311 312 312 313 313 313 312 310 310 310 311 309 308
303 302 303 305 303 305 306 306 308 310 310 308 307 308 307 309 307 310 311 311 311 310 310 310 310 310 309 303 304 308 309 310 310 310 313 313 311 310 308 307 308 308 309
303 302 305 304 305 305 306 306 308 309 309 310 310 309 308 306 308 309 308 308 308 307 306 307 310 310 309 302 303 305 310 309 311 311 311 311 312 311 309 310 308 308 307
303 306 306 306 308 306 308 309 310 310 309 309 308 308 308 308 308 310 311 311 311 311 307 307 308 308 306 301 301 304 309 309 310 312 313 313 313 312 311 314 314 314 313
307 307 308 308 307 307 309 309 309 309 308 308 307 310 310 311 311 311 312 313 312 310 309 310 311 311 310 300 300 307 310 311 313 314 314 314 312 301 302 311 314 314 314
309 308 308 308 307 309 310 309 308 309 309 310 309 311 312 312 310 311 311 312 312 312 312 313 314 306 311 298 299 302 313 314 314 315 313 303 305 300 300 313 316 313 313
308 308 308 307 307 309 310 307 309 308 310 311 311 313 314 313 313 314 315 314 313 315 314 315 317 316 312 309 299 299 314 314 313 310 310 310 300 300 301 298 314 311 304
307 308 307 309 309 309 309 308 310 312 313 313 312 314 315 313 315 316 316 316 315 315 314 317 316 316 318 302 300 301 302 306 314 313 313 312 300 300 299 301 301 298 300
307 310 307 309 310 310 311 310 312 313 313 312 312 314 315 316 316 314 314 313 315 313 311 313 312 314 313 313 302 301 302 306 314 314 308 303 300 299 301 299 299 298 314
306 309 307 308 309 311 312 312 313 313 313 313 313 315 315 315 315 313 310 307 307 308 308 310 310 309 308 306 304 306 310 307 310 310 314 310 306 301 303 309 309 313 313
309 309 309 309 310 311 312 313 313 314 313 315 314 316 315 315 313 310 308 307 303 300 304 304 308 305 305 301 295 296 303 306 306 301 314 312 311 311 311 311 311 311 311
310 310 312 310 311 312 311 314 315 315 314 313 314 312 314 314 314 311 307 293 295 294 292 292 295 302 293 292 293 293 293 293 294 309 310 309 309 309 309 309 309 310 308

GFSMW_sfc_thetae_282.txt.gz
Theta_e
320 323 324 324 324 326 325 327 326 327 323 319 319 318 316 319 323 325 321 320 321 322 322 319 318 320 320 325 323 322 320 319 319 316 315 317 318 320 319 319 318 319 319
319 321 322 323 322 323 327 327 324 326 324 320 322 324 319 319 320 319 321 322 322 321 318 320 318 320 318 319 321 322 319 319 320 314 313 308 313 316 318 319 316 316 319
316 317 318 319 320 322 325 324 326 326 325 325 320 319 318 315 315 315 317 318 320 319 320 321 320 319 319 317 319 321 318 316 318 317 313 308 306 311 314 315 316 315 317
316 316 316 317 318 318 320 322 326 322 319 324 320 319 314 311 314 316 318 317 321 320 320 318 319 321 319 318 319 319 318 318 314 317 318 317 315 307 305 311 312 315 314
314 314 314 317 321 319 320 322 321 319 320 321 320 316 315 314 315 316 315 316 314 318 318 317 318 320 320 318 319 319 318 318 317 315 316 315 314 314 309 305 308 313 313
314 315 318 320 319 317 317 318 318 318 319 318 318 315 314 314 313 313 313 313 314 315 317 318 319 319 319 318 320 321 320 319 318 317 316 313 311 310 309 307 307 307 311
314 315 314 316 315 313 314 313 315 314 315 314 315 315 315 314 312 312 311 312 312 313 315 316 317 317 318 318 318 318 318 318 317 316 315 315 314 314 312 310 308 306 310
313 312 313 313 311 311 311 311 311 312 312 313 313 314 313 311 311 311 311 311 312 314 316 316 317 317 318 318 317 315 315 318 318 316 316 315 314 315 314 311 308 304 306
311 311 312 312 309 310 311 311 311 312 312 313 312 312 311 310 310 310 311 310 312 313 314 315 315 315 317 317 317 313 313 316 317 317 317 315 315 316 316 314 312 307 301
310 310 308 310 312 312 310 312 310 310 311 311 311 310 310 310 310 309 308 309 310 313 312 311 313 315 315 316 315 313 313 313 314 315 314 314 315 314 315 313 313 311 306
307 308 308 309 309 309 308 310 309 309 309 309 311 309 308 309 310 309 308 308 309 312 311 311 313 312 313 315 315 313 313 312 313 314 314 314 314 313 313 313 312 310 309
307 308 308 307 307 307 306 307 308 307 307 310 310 309 309 309 309 308 308 309 309 312 312 312 312 312 312 313 313 311 311 311 311 311 312 312 314 313 313 312 311 310 308
307 306 306 305 305 305 306 306 307 308 307 308 309 307 308 307 308 309 309 310 310 310 311 311 311 310 311 310 311 312 312 312 312 311 312 313 313 311 312 312 311 309 308
306 305 305 304 304 305 306 306 308 308 308 308 309 308 309 309 308 307 308 310 310 310 310 312 311 311 309 308 309 311 311 312 312 313 314 312 310 309 309 310 309 309 308
304 304 304 303 303 305 307 307 309 308 310 309 308 309 310 311 309 310 310 310 310 310 310 310 310 311 308 305 306 311 310 311 312 313 313 311 310 309 309 309 310 310 308
304 304 303 304 304 305 306 307 309 309 310 310 308 308 309 311 310 311 310 309 308 308 310 310 310 309 306 303 305 308 310 310 309 310 311 313 312 311 308 308 308 307 306
304 304 304 304 306 305 308 308 309 310 309 309 309 310 311 309 311 311 311 310 310 309 308 308 309 309 307 302 303 306 309 309 310 310 310 310 311 312 313 313 310 309 309
304 305 306 306 307 308 309 310 311 309 309 309 310 311 310 309 312 312 312 312 313 311 309 309 310 311 306 301 301 303 311 310 311 311 312 313 312 305 306 307 311 312 313
306 307 308 308 308 308 310 310 310 310 309 309 310 311 312 311 311 311 312 314 315 313 314 314 313 310 308 300 300 306 313 314 313 312 311 311 311 301 300 312 312 312 313
308 307 308 308 308 309 311 310 309 309 308 310 311 312 313 313 313 314 315 316 315 310 315 315 316 309 310 299 299 302 312 313 314 313 310 303 304 301 300 306 311 311 310
308 309 308 308 309 310 310 309 311 308 311 312 313 314 314 311 314 317 317 316 316 313 315 313 316 316 312 309 300 299 307 311 312 311 312 311 301 302 300 299 304 310 304
307 308 307 308 310 311 310 309 310 313 313 313 314 314 316 316 318 317 317 312 314 311 314 315 315 315 314 303 303 303 304 304 311 312 314 314 303 301 299 300 305 298 300
307 309 308 308 310 311 313 311 312 313 314 314 314 315 316 317 316 314 311 308 309 310 310 309 313 308 306 304 303 304 301 305 311 314 309 303 300 298 301 301 299 299 313
307 309 308 308 309 312 312 314 314 314 314 314 314 315 317 316 316 312 309 306 305 306 306 308 305 307 307 303 302 302 305 306 309 306 306 309 308 302 304 309 311 312 311
309 310 309 310 310 312 313 313 314 316 314 314 314 316 314 315 313 308 304 306 301 298 302 301 303 300 300 299 294 294 299 300 300 297 312 312 312 310 310 310 311 309 308
310 310 311 311 311 312 312 314 316 316 316 314 314 314 312 315 315 310 306 294 295 295 293 292 296 302 294 293 293 294 294 294 294 304 310 309 309 308 308 308 307 308 306

GFSMW_sfc_thetae_285.txt.gz
Theta_e
316 318 320 320 319 318 319 318 316 314 313 311 310 310 308 311 316 314 316 315 316 316 312 311 310 311 311 312 313 314 315 312 313 309 308 310 312 315 314 311 311 311 314
316 320 318 321 319 320 320 317 319 314 314 313 313 312 311 310 313 314 315 316 316 313 311 310 311 311 310 309 311 314 310 311 313 308 305 302 306 311 313 313 313 310 313
313 315 315 315 315 317 318 319 315 313 313 312 311 310 310 308 308 311 310 312 315 314 311 311 310 311 311 309 309 310 309 308 311 312 307 301 298 305 307 307 311 309 310
315 313 313 313 315 314 315 315 313 312 313 315 309 307 305 304 307 309 312 312 314 315 313 313 314 311 311 310 310 314 310 309 310 313 316 310 307 300 299 305 307 307 308
312 313 312 317 319 316 313 314 311 310 310 310 309 307 306 310 311 311 311 311 312 313 314 313 315 313 310 310 311 310 311 309 311 310 312 311 308 307 303 299 302 306 307
312 312 316 316 314 311 311 311 308 307 308 309 310 310 305 306 306 308 308 308 308 309 310 312 310 310 310 310 311 311 311 311 311 310 310 306 303 303 302 299 300 300 304
310 312 310 309 306 305 306 307 306 305 307 308 310 307 305 304 303 302 303 303 304 305 307 308 309 310 312 313 312 309 309 309 308 308 309 307 306 307 304 302 300 300 303
310 308 305 303 304 307 307 307 307 306 307 308 305 305 304 303 303 302 303 303 303 306 307 308 312 314 314 313 310 309 309 310 309 308 308 307 308 308 306 303 301 298 298
302 302 303 304 304 304 306 306 306 305 306 305 305 303 303 302 302 303 304 302 303 310 309 309 311 312 312 310 308 306 306 307 308 307 308 309 307 307 307 306 304 300 294
300 303 303 302 302 302 303 304 303 303 305 307 304 303 302 303 305 305 302 305 304 309 309 307 307 309 310 309 306 304 305 305 307 308 307 306 306 306 307 305 304 302 299
301 301 300 301 301 301 303 303 305 305 306 303 304 305 305 305 304 302 305 306 306 308 309 307 307 306 307 307 307 306 308 307 308 308 307 306 306 305 305 305 304 302 300
300 300 300 300 300 302 304 304 303 305 304 303 302 305 306 304 306 304 305 307 305 305 307 306 306 306 306 306 306 309 309 308 308 307 307 310 310 305 305 304 303 302 301
300 300 299 299 301 301 304 302 305 306 305 304 303 303 303 302 302 304 305 304 304 304 304 305 305 304 304 304 305 306 307 306 309 309 306 305 304 302 303 303 303 303 304
301 299 297 298 299 302 301 303 305 304 305 307 306 304 302 303 302 303 305 307 306 305 305 305 305 304 302 303 304 307 305 306 310 308 306 305 303 301 302 305 304 304 302
300 298 298 297 299 301 301 303 304 307 306 306 306 304 305 304 305 307 305 304 303 304 307 306 305 302 302 303 302 303 305 304 305 307 307 306 308 310 308 303 301 301 301
300 299 300 301 300 301 302 303 304 307 305 304 307 307 305 305 305 307 308 307 306 306 304 303 304 301 303 303 305 306 302 305 305 305 305 306 309 308 310 309 309 304 298
300 300 300 301 301 301 305 305 306 307 306 305 308 308 308 305 305 306 306 304 304 305 305 306 306 304 303 302 303 306 305 303 307 307 307 305 308 305 303 305 309 309 309
300 303 301 301 301 302 303 306 308 308 305 305 306 307 306 305 306 306 306 304 303 303 306 304 303 302 301 302 301 304 305 304 303 304 304 303 302 300 300 304 305 306 307
302 302 302 301 303 303 306 307 306 305 304 305 305 307 307 306 305 304 305 306 304 304 304 305 303 301 299 301 300 300 304 305 304 304 301 303 302 301 300 303 306 308 306
302 305 302 302 303 303 306 306 304 304 303 305 309 310 307 306 306 309 309 310 309 308 307 306 304 305 301 299 299 300 302 304 305 302 300 303 300 300 299 297 299 306 307
303 305 301 302 303 304 306 304 307 306 307 308 310 310 309 306 308 310 309 310 307 308 306 309 305 304 302 301 299 300 304 304 304 305 303 303 301 299 298 298 297 300 303
303 306 302 302 304 305 305 307 303 307 307 310 311 309 311 310 310 304 305 307 307 305 308 306 306 303 300 300 300 298 299 302 304 305 306 305 303 299 298 298 299 298 298
303 304 302 304 305 306 306 306 306 308 309 310 308 308 309 309 308 299 297 298 299 300 301 299 300 297 299 296 299 297 297 300 303 305 302 299 298 300 302 302 300 300 302
305 305 305 306 304 306 308 306 308 309 311 307 307 307 307 306 303 303 297 294 293 294 294 297 292 293 293 293 292 293 294 298 300 301 298 303 302 300 301 303 303 300 300
306 304 306 306 305 308 307 308 309 311 309 308 307 307 305 305 301 296 296 294 289 289 289 288 291 289 288 290 291 291 292 292 294 294 302 301 301 300 301 300 301 299 300
304 305 305 305 308 307 308 309 310 310 310 307 306 305 307 308 307 298 294 293 293 294 293 292 289 292 292 293 293 293 294 293 293 300 299 299 299 299 299 299 298 299 299

GFSMW_sfc_thetae_288.txt.gz
Theta_e
317 318 321 322 320 319 318 317 313 310 310 308 308 308 306 306 309 313 316 315 315 316 309 308 309 309 309 308 310 310 310 310 311 308 308 307 309 310 315 310 312 315 316
315 319 319 319 318 319 318 316 312 310 310 308 308 306 306 306 306 309 313 314 314 314 310 308 308 309 309 308 308 307 307 309 314 307 303 300 304 308 312 311 311 312 312
313 314 314 313 315 312 313 310 310 310 313 309 308 307 307 306 306 307 307 311 314 313 311 310 310 308 308 307 307 307 306 304 308 310 306 299 297 301 308 308 307 308 309
314 309 309 312 314 310 311 312 311 309 309 308 305 303 303 302 304 306 309 310 313 314 314 311 311 313 308 307 307 312 308 306 304 309 313 308 306 300 298 303 305 305 306
310 309 311 315 312 313 310 308 306 305 307 307 306 308 305 303 305 305 305 308 309 311 311 310 309 309 308 307 307 308 307 308 306 307 311 309 310 305 300 297 300 304 305
312 314 316 308 307 307 305 304 304 306 307 308 308 302 301 300 300 300 301 302 303 305 307 309 307 308 308 308 308 309 309 308 307 311 311 308 305 304 301 298 298 298 302
310 305 304 302 302 303 304 306 304 304 306 305 303 302 301 300 299 299 299 299 300 302 304 306 306 310 313 312 309 307 308 308 306 307 309 306 306 304 301 300 298 298 300
301 300 300 301 300 302 303 303 303 302 302 302 302 301 300 299 300 299 299 299 299 302 309 309 312 312 313 311 306 306 306 306 306 305 305 305 305 304 303 302 299 296 295
299 300 300 300 300 301 301 301 301 302 304 302 302 301 301 300 300 300 301 301 304 309 310 309 310 311 311 307 304 305 305 305 305 305 305 305 304 305 305 303 301 298 293
298 298 298 299 299 298 299 301 304 302 304 301 301 305 302 305 305 302 303 304 306 308 307 306 307 309 307 307 306 305 307 304 305 305 304 304 304 304 303 302 302 299 296
297 297 298 298 299 299 301 300 304 303 301 301 301 302 301 302 304 302 302 305 306 307 307 305 305 306 305 304 307 308 308 307 307 306 306 304 303 302 303 302 301 299 298
297 297 297 298 299 299 300 304 302 302 302 304 304 302 301 301 300 301 302 302 302 303 303 304 304 303 303 304 305 307 308 308 307 309 306 306 307 302 302 301 300 299 299
296 296 297 297 299 299 300 302 302 302 306 304 304 301 301 301 300 301 302 302 302 302 303 303 302 301 302 302 303 304 305 305 306 304 303 302 301 300 300 300 301 301 302
297 296 295 296 298 299 300 301 302 303 304 305 303 301 301 305 305 304 302 301 302 302 303 303 301 301 301 302 303 304 303 304 305 304 303 302 301 299 300 301 300 300 299
297 296 295 296 297 298 300 302 301 303 303 306 304 302 302 303 304 304 304 305 302 302 303 303 301 300 301 303 302 301 301 302 303 304 305 304 308 310 307 301 299 298 298
298 298 298 298 298 299 301 303 303 302 303 306 307 304 303 304 304 303 304 303 302 305 306 306 302 299 302 303 306 304 301 303 302 302 303 304 307 307 310 310 309 303 297
298 298 299 299 299 300 302 302 303 303 304 304 306 305 304 304 307 306 306 306 306 304 305 305 304 300 300 302 302 306 302 302 302 302 302 304 306 302 300 304 307 308 309
300 299 299 298 300 300 303 303 304 303 303 304 304 305 305 304 305 306 303 303 306 302 301 301 299 298 300 301 300 302 302 301 302 302 302 302 302 300 299 303 304 304 304
299 299 299 299 299 301 303 303 303 302 303 304 304 305 305 305 307 307 307 303 301 302 302 301 300 299 299 300 299 300 300 302 302 303 301 300 301 300 299 302 303 306 307
301 300 300 300 300 301 304 302 302 301 303 307 307 307 307 305 307 308 308 308 305 303 304 303 301 304 300 298 298 299 300 300 302 303 301 302 299 298 298 299 301 301 304
301 301 299 300 300 302 305 301 303 303 305 307 309 308 307 305 305 303 307 307 306 307 304 302 301 299 297 295 297 298 299 300 302 303 302 302 301 299 297 297 297 298 300
300 301 300 300 302 303 303 305 301 304 309 308 307 307 306 307 306 296 297 300 301 302 300 301 298 297 296 297 296 295 296 299 303 304 301 299 297 296 297 298 297 297 298
301 302 301 301 302 304 303 302 304 305 307 305 304 305 305 304 302 294 293 293 294 295 295 295 294 293 293 291 294 294 294 296 298 297 299 297 297 298 299 298 298 298 298
302 302 304 302 302 304 306 304 306 309 306 304 305 305 304 306 300 299 292 289 288 288 291 293 289 288 288 289 290 291 292 296 298 297 300 301 299 299 300 300 299 297 297
303 302 303 302 303 305 305 306 308 308 305 305 305 304 305 306 305 299 295 291 288 288 286 285 289 287 286 289 290 291 292 292 293 295 298 298 298 298 297 296 298 297 296
303 303 303 303 304 305 306 307 308 307 308 305 304 303 305 306 306 297 293 293 292 292 292 291 288 289 291 292 292 293 293 292 293 297 295 295 296 296 296 295 295 295 296

GFSMW_sfc_thetae_291.txt.gz
Theta_e
314 317 320 320 317 317 316 314 311 309 307 306 306 306 304 305 305 308 310 313 313 315 311 307 307 307 306 306 306 307 307 308 313 308 307 306 306 307 310 312 313 317 317
315 318 315 315 316 315 313 309 308 307 308 306 305 304 304 304 304 307 310 313 314 312 310 307 306 306 306 306 306 305 305 306 309 309 302 299 302 306 308 310 312 314 316
312 313 311 311 310 309 308 308 307 306 306 306 305 304 304 304 304 305 309 310 312 314 313 310 310 307 306 305 305 305 304 303 305 308 306 300 297 300 304 308 308 309 307
311 308 308 310 308 310 309 306 305 304 307 306 303 302 301 299 301 302 303 305 310 311 310 310 310 307 307 306 305 310 306 304 302 307 310 308 303 298 302 306 307 304 307
308 307 307 306 308 307 305 305 305 304 304 305 303 300 298 299 300 299 300 301 302 305 308 308 307 306 305 306 306 306 306 305 304 304 307 309 309 304 301 298 300 303 304
308 309 306 304 303 304 305 304 303 302 303 302 301 299 298 297 297 297 298 299 300 301 304 306 305 306 307 308 306 305 306 307 306 308 310 308 305 304 303 299 296 297 302
302 301 301 300 300 300 301 303 301 301 301 302 301 300 298 298 297 297 297 297 297 299 304 307 307 310 311 309 306 305 306 305 306 307 309 307 304 302 302 301 297 297 299
299 299 299 299 299 300 300 300 299 300 301 301 300 300 299 301 299 298 301 298 299 305 310 310 311 312 311 307 306 307 304 304 304 305 305 304 303 303 303 300 298 295 294
297 298 298 299 299 299 299 298 300 302 300 299 300 301 300 300 300 301 300 305 307 308 308 308 309 311 309 307 307 306 303 305 304 303 304 303 303 304 303 301 299 296 291
296 296 297 297 298 297 298 299 302 300 300 300 300 301 300 300 301 300 300 306 305 305 304 304 307 306 306 307 307 307 307 304 303 303 303 302 302 301 301 300 299 297 295
295 296 296 297 297 298 299 300 300 300 300 300 300 300 300 300 300 299 300 301 301 302 303 303 304 304 304 305 308 308 308 308 304 303 304 302 301 301 300 299 298 297 296
295 296 296 297 298 297 299 300 300 301 302 302 301 302 302 300 299 299 300 300 300 301 302 301 301 301 302 303 304 307 308 307 306 306 303 303 305 300 299 299 298 297 297
296 298 296 296 297 298 299 299 301 301 303 302 301 301 302 304 305 303 299 300 301 301 301 301 300 300 301 301 302 303 305 303 303 302 300 300 300 298 298 298 299 298 300
298 298 294 295 296 298 298 300 300 301 302 303 302 301 300 303 302 304 302 301 300 301 300 300 300 300 301 301 302 302 302 303 303 303 302 301 300 299 300 300 299 298 298
298 296 295 295 296 297 299 301 301 301 302 305 303 301 303 302 305 305 303 305 304 303 303 301 299 299 301 303 300 300 301 301 301 303 304 304 306 309 305 300 297 296 296
298 296 297 296 297 299 300 301 302 302 302 302 303 304 305 306 303 306 307 306 304 305 306 304 299 298 302 303 306 303 300 301 301 301 301 302 306 304 305 307 310 302 296
297 297 298 297 298 298 300 300 302 302 302 302 304 304 303 305 304 303 303 302 303 304 304 300 299 298 299 301 302 305 300 300 299 299 300 302 304 301 298 303 307 307 308
298 298 298 297 298 299 300 301 303 302 302 302 303 304 307 306 305 304 302 301 300 299 298 298 297 297 299 301 299 301 300 300 301 300 300 299 301 302 301 301 302 303 305
298 298 298 298 299 300 301 302 301 301 302 303 304 305 307 306 306 305 303 301 300 300 299 298 299 297 297 299 298 299 298 300 301 302 299 299 299 300 299 301 303 303 304
299 299 299 299 299 300 301 300 300 301 304 305 305 305 305 303 302 303 303 307 305 301 302 302 299 301 296 297 297 298 300 300 301 302 302 303 302 299 297 298 297 299 301
299 300 299 298 299 301 303 300 300 301 305 306 306 306 304 303 301 298 299 300 306 302 300 300 299 296 295 293 296 296 296 299 302 303 301 301 299 297 297 296 296 297 297
300 300 299 299 300 302 302 300 301 304 306 306 305 304 304 303 299 292 294 295 297 298 298 298 296 296 293 294 294 294 295 298 297 297 297 298 296 296 297 296 296 296 298
300 301 299 300 301 302 302 301 303 304 305 303 303 303 306 306 302 292 290 291 291 293 293 291 290 288 289 290 294 294 294 296 297 295 298 297 296 297 298 297 296 297 296
300 301 301 301 301 303 304 303 304 306 304 303 303 306 306 306 304 299 290 288 287 286 287 290 288 286 286 288 289 291 292 295 297 298 299 298 298 297 298 297 296 295 295
301 301 301 301 301 303 304 305 306 306 304 303 303 304 305 306 304 300 295 290 288 287 285 284 286 286 287 289 290 290 291 292 293 296 296 296 295 295 295 294 294 293 293
301 301 301 301 302 303 304 305 306 306 305 302 302 301 305 306 305 300 296 293 292 292 291 290 288 289 291 291 291 291 292 292 293 294 293 293 293 293 293 293 292 292 293